Location: Isola Pescaroli
(45.0500°N, 10.1667°E)
Time: 00:35:28
(UTC+00:00)

SL-4 R/B - Pass Details

Date: 19 June 2021
Orbit: 428 x 662 km, 51.6° (Epoch: 29 July)

Event Time Altitude Azimuth Distance (km) Brightness Sun altitude
Rises 01:27:42 0° 290° (WNW) 2,575 5.3 -15.7°
Reaches altitude 10° 01:30:10 10° 302° (WNW) 1,652 4.5 -15.4°
Maximum altitude 01:33:25 28° 3° (N) 888 3.8 -15.1°
Drops below altitude 10° 01:36:31 10° 65° (ENE) 1,567 5.2 -14.9°
Sets 01:38:47 0° 78° (ENE) 2,415 6.0 -14.6°
